Location: Le Rocchette
(44.3500°N, 7.8333°E)
Time: 23:21:01
(UTC+00:00)

ATLAS 2AS CENTAUR R/B - Pass Details

Date: 17 November 2019
Orbit: 926 x 1286 km, 63.7° (Epoch: 02 December)

Event Time Altitude Azimuth Distance (km) Brightness Sun altitude
Exits shadow 03:32:00 24° 345° (NNW) 2,305 4.3 -31.1°
Maximum altitude 03:36:02 40° 38° (NE) 1,688 3.9 -30.4°
Drops below altitude 10° 03:42:43 10° 106° (ESE) 2,991 5.9 -29.2°
Sets 03:45:30 0° 114° (ESE) 3,891 6.6 -28.7°
